Temp
-21 -21 -21 -21 -21 -22 -22 -22 -23 -22 -22 -23 -23 -23 -23 -23 -23 -23 -24 -26 -26 -27 -27 -27 -27 -27 -27 -27 -27 -26 -27 -27 -27 -25 -23 -19 -17 -16 -16 -16 -15 -15 -15
-21 -22 -22 -22 -22 -22 -22 -23 -22 -22 -22 -22 -22 -22 -23 -23 -23 -24 -25 -25 -27 -27 -27 -27 -27 -27 -27 -28 -27 -27 -27 -26 -24 -22 -19 -18 -17 -16 -16 -16 -15 -15 -15
-22 -22 -22 -22 -22 -22 -23 -22 -22 -22 -22 -22 -22 -21 -22 -22 -23 -24 -25 -26 -27 -26 -26 -27 -27 -26 -26 -26 -26 -25 -24 -22 -21 -18 -17 -17 -16 -16 -16 -15 -15 -15 -15
-22 -22 -22 -22 -22 -23 -22 -22 -22 -22 -22 -22 -22 -21 -22 -22 -22 -23 -24 -25 -25 -25 -25 -26 -26 -26 -25 -25 -24 -23 -22 -19 -17 -17 -17 -17 -16 -16 -16 -15 -16 -15 -16
-22 -22 -22 -22 -22 -23 -22 -22 -22 -22 -21 -21 -21 -21 -21 -21 -22 -22 -22 -23 -23 -23 -21 -24 -24 -24 -24 -23 -21 -20 -18 -17 -16 -17 -17 -16 -16 -16 -16 -15 -15 -15 -16
-22 -22 -22 -22 -22 -22 -22 -22 -22 -21 -21 -22 -22 -20 -20 -20 -21 -21 -21 -21 -22 -21 -21 -20 -22 -21 -21 -21 -18 -17 -17 -17 -16 -16 -16 -15 -16 -15 -15 -15 -14 -14 -14
-22 -22 -22 -22 -22 -22 -22 -22 -21 -21 -21 -21 -21 -20 -20 -21 -21 -20 -20 -20 -21 -20 -19 -19 -21 -20 -20 -20 -19 -17 -17 -16 -16 -16 -15 -15 -15 -14 -14 -14 -14 -14 -15
-22 -22 -22 -22 -22 -22 -22 -21 -21 -21 -21 -21 -21 -20 -20 -20 -20 -19 -19 -19 -19 -19 -19 -19 -18 -18 -18 -17 -18 -17 -17 -16 -16 -16 -16 -15 -14 -14 -15 -14 -14 -14 -14
-22 -22 -22 -22 -22 -22 -21 -21 -20 -21 -21 -20 -20 -19 -19 -19 -19 -19 -19 -19 -18 -18 -18 -18 -18 -19 -19 -19 -18 -18 -16 -16 -15 -15 -15 -15 -15 -14 -14 -15 -14 -13 -13
-22 -22 -22 -22 -22 -21 -20 -20 -20 -20 -20 -20 -20 -20 -19 -19 -19 -19 -18 -18 -18 -18 -17 -17 -17 -18 -18 -18 -17 -16 -16 -16 -15 -15 -15 -14 -14 -14 -14 -14 -13 -14 -14
-21 -21 -22 -21 -21 -21 -20 -20 -20 -20 -20 -20 -19 -20 -19 -19 -19 -18 -18 -18 -17 -17 -17 -17 -17 -18 -17 -18 -18 -18 -16 -15 -15 -16 -15 -15 -14 -15 -14 -14 -15 -16 -15
-21 -21 -21 -21 -21 -20 -19 -19 -20 -20 -20 -20 -20 -20 -19 -18 -18 -18 -17 -18 -18 -17 -17 -17 -17 -18 -17 -17 -18 -17 -15 -15 -15 -14 -15 -14 -14 -14 -14 -15 -15 -16 -16
-21 -21 -21 -21 -21 -21 -20 -19 -19 -19 -19 -19 -19 -19 -19 -19 -18 -18 -17 -17 -17 -18 -17 -17 -17 -17 -17 -17 -16 -16 -16 -15 -14 -14 -14 -14 -14 -14 -14 -14 -15 -15 -16
-20 -21 -21 -21 -21 -20 -20 -21 -20 -20 -19 -19 -19 -19 -18 -19 -19 -19 -18 -17 -17 -17 -17 -17 -17 -17 -17 -16 -16 -14 -14 -14 -14 -14 -14 -14 -14 -14 -14 -15 -14 -14 -14
-19 -19 -20 -21 -21 -21 -20 -20 -20 -20 -20 -20 -19 -19 -18 -18 -18 -18 -18 -18 -18 -17 -17 -17 -16 -16 -16 -15 -15 -14 -14 -14 -14 -14 -14 -14 -13 -14 -14 -14 -15 -14 -14
-19 -19 -19 -19 -20 -20 -20 -20 -20 -20 -20 -20 -20 -20 -18 -17 -17 -17 -17 -17 -17 -17 -17 -17 -16 -16 -16 -15 -14 -14 -14 -14 -14 -14 -14 -14 -14 -14 -14 -14 -14 -14 -14
-18 -19 -19 -19 -19 -19 -19 -19 -20 -20 -19 -19 -19 -19 -19 -19 -19 -18 -18 -18 -18 -19 -18 -17 -17 -16 -16 -16 -15 -15 -14 -14 -14 -14 -14 -14 -14 -14 -14 -14 -14 -14 -14
-17 -18 -18 -18 -19 -19 -19 -19 -20 -20 -19 -19 -19 -19 -19 -19 -19 -19 -19 -19 -19 -19 -18 -18 -18 -18 -18 -17 -16 -16 -15 -15 -15 -14 -14 -14 -14 -14 -15 -15 -15 -15 -15
-17 -17 -17 -18 -18 -18 -18 -19 -19 -19 -19 -20 -20 -20 -19 -19 -19 -19 -19 -19 -19 -19 -19 -19 -18 -18 -18 -17 -17 -17 -17 -17 -16 -16 -15 -15 -15 -15 -15 -15 -15 -16 -15
-17 -17 -17 -17 -18 -18 -18 -18 -18 -18 -18 -18 -18 -18 -19 -19 -19 -20 -20 -20 -20 -19 -19 -19 -19 -18 -18 -18 -17 -16 -16 -16 -16 -17 -17 -18 -17 -17 -17 -17 -17 -17 -17
-17 -17 -17 -17 -17 -17 -17 -17 -17 -17 -17 -17 -18 -18 -18 -18 -18 -18 -18 -18 -18 -18 -17 -17 -17 -17 -17 -17 -17 -17 -17 -17 -17 -17 -17 -17 -17 -17 -17 -17 -17 -17 -17
-16 -16 -17 -17 -17 -17 -17 -17 -17 -17 -17 -17 -17 -17 -17 -17 -17 -17 -17 -17 -17 -17 -17 -17 -17 -17 -17 -17 -17 -17 -17 -17 -17 -17 -17 -17 -17 -17 -17 -17 -17 -17 -17
-16 -16 -16 -17 -17 -17 -17 -17 -17 -17 -17 -17 -17 -17 -17 -17 -17 -17 -17 -17 -17 -17 -17 -17 -17 -17 -17 -17 -17 -17 -17 -17 -17 -17 -17 -17 -17 -17 -17 -17 -17 -18 -18
-16 -16 -16 -16 -16 -17 -17 -17 -17 -17 -17 -17 -17 -17 -17 -17 -17 -17 -17 -17 -17 -17 -17 -17 -17 -17 -17 -17 -17 -17 -17 -17 -17 -17 -17 -17 -17 -17 -17 -17 -18 -17 -18
-16 -16 -16 -16 -16 -16 -16 -17 -17 -17 -17 -17 -17 -17 -17 -17 -17 -17 -17 -17 -17 -17 -17 -17 -17 -17 -17 -17 -17 -17 -17 -17 -17 -18 -17 -18 -18 -18 -18 -18 -18 -18 -18
-16 -16 -16 -16 -16 -16 -16 -16 -16 -16 -17 -17 -17 -17 -17 -17 -17 -17 -17 -17 -17 -17 -17 -17 -17 -17 -17 -18 -17 -18 -18 -18 -18 -18 -18 -18 -18 -18 -18 -18 -18 -18 -18
Height
5618 5609 5599 5589 5577 5564 5552 5541 5533 5524 5514 5503 5493 5482 5470 5458 5442 5426 5417 5405 5392 5379 5371 5366 5367 5368 5372 5382 5391 5402 5415 5427 5443 5462 5483 5516 5546 5576 5601 5624 5646 5665 5681
5616 5607 5597 5586 5574 5561 5550 5542 5534 5526 5517 5505 5494 5483 5472 5462 5446 5429 5417 5406 5393 5379 5371 5366 5364 5364 5369 5380 5392 5403 5416 5432 5452 5477 5498 5528 5560 5586 5611 5631 5645 5663 5681
5616 5606 5596 5585 5572 5560 5552 5544 5537 5530 5520 5510 5498 5488 5480 5469 5456 5441 5427 5413 5401 5390 5382 5380 5378 5379 5383 5392 5404 5418 5432 5450 5472 5496 5518 5552 5576 5596 5618 5634 5650 5664 5677
5616 5607 5596 5585 5572 5563 5555 5549 5542 5535 5525 5517 5507 5496 5489 5478 5467 5456 5445 5434 5422 5412 5410 5407 5403 5402 5407 5416 5427 5439 5458 5480 5505 5528 5547 5573 5591 5608 5625 5639 5652 5667 5681
5617 5608 5598 5585 5574 5567 5560 5554 5548 5541 5533 5525 5517 5507 5500 5491 5480 5473 5467 5459 5445 5438 5438 5442 5439 5438 5446 5453 5464 5476 5491 5515 5535 5552 5567 5583 5601 5615 5633 5645 5660 5671 5686
5620 5611 5600 5588 5579 5573 5566 5561 5555 5549 5542 5535 5527 5520 5512 5507 5497 5495 5489 5483 5476 5470 5469 5476 5475 5480 5475 5486 5501 5519 5531 5538 5554 5568 5581 5595 5610 5623 5639 5653 5665 5674 5685
5624 5614 5603 5593 5586 5579 5573 5569 5564 5558 5553 5546 5540 5534 5528 5523 5516 5510 5510 5506 5502 5497 5493 5501 5504 5505 5512 5518 5524 5541 5553 5562 5574 5587 5600 5610 5621 5635 5645 5656 5668 5682 5694
5629 5620 5608 5600 5594 5588 5582 5578 5574 5569 5563 5559 5552 5546 5544 5540 5535 5533 5532 5529 5524 5526 5522 5525 5528 5531 5539 5546 5550 5558 5563 5575 5588 5598 5612 5624 5636 5644 5656 5667 5679 5689 5698
5635 5626 5615 5608 5602 5597 5592 5588 5584 5579 5575 5569 5565 5561 5559 5555 5553 5553 5551 5550 5549 5548 5549 5551 5553 5555 5558 5561 5568 5577 5586 5592 5600 5610 5622 5636 5645 5655 5666 5677 5686 5695 5706
5643 5635 5624 5616 5612 5608 5603 5599 5595 5590 5586 5581 5579 5576 5574 5572 5572 5569 5568 5568 5567 5568 5571 5573 5575 5576 5579 5582 5590 5593 5599 5607 5614 5622 5632 5643 5652 5664 5674 5685 5695 5705 5717
5652 5644 5636 5627 5622 5618 5614 5610 5606 5601 5597 5594 5593 5591 5589 5585 5584 5586 5584 5584 5584 5586 5590 5592 5592 5596 5598 5601 5601 5606 5610 5619 5627 5635 5643 5652 5662 5671 5680 5692 5700 5711 5724
5662 5655 5647 5640 5633 5628 5624 5620 5616 5612 5610 5608 5606 5604 5602 5599 5598 5599 5599 5598 5598 5599 5600 5602 5603 5607 5610 5613 5617 5620 5624 5632 5639 5647 5655 5662 5669 5678 5688 5698 5707 5718 5729
5673 5666 5660 5653 5646 5640 5634 5630 5627 5624 5621 5619 5618 5617 5615 5612 5610 5611 5612 5612 5612 5612 5613 5613 5614 5618 5622 5625 5629 5632 5637 5643 5649 5657 5664 5671 5678 5687 5696 5704 5714 5722 5731
5684 5677 5671 5665 5660 5654 5649 5643 5639 5636 5633 5630 5630 5629 5627 5625 5624 5622 5623 5624 5624 5623 5623 5624 5627 5628 5631 5634 5637 5642 5647 5653 5659 5665 5671 5678 5685 5692 5701 5710 5719 5727 5734
5696 5690 5683 5678 5672 5667 5662 5658 5655 5651 5645 5643 5642 5641 5640 5640 5638 5636 5636 5637 5636 5636 5636 5635 5638 5637 5640 5643 5648 5653 5657 5663 5669 5675 5681 5686 5693 5700 5709 5718 5725 5732 5737
5708 5703 5697 5691 5685 5681 5676 5672 5668 5666 5663 5659 5658 5656 5652 5649 5648 5649 5649 5649 5649 5646 5650 5649 5649 5651 5653 5654 5658 5663 5668 5673 5678 5683 5689 5695 5702 5710 5716 5723 5728 5734 5739
5719 5714 5709 5705 5700 5696 5691 5687 5683 5680 5677 5675 5672 5669 5666 5660 5660 5659 5659 5660 5660 5662 5664 5661 5661 5662 5663 5664 5668 5672 5676 5680 5685 5691 5696 5702 5709 5715 5721 5726 5732 5735 5740
5727 5724 5720 5716 5712 5709 5705 5701 5698 5695 5692 5689 5686 5683 5681 5679 5676 5675 5675 5677 5678 5678 5676 5675 5675 5674 5676 5677 5680 5683 5685 5687 5692 5696 5702 5707 5712 5718 5723 5729 5733 5737 5742
5735 5733 5730 5727 5724 5721 5718 5715 5711 5707 5704 5702 5700 5698 5696 5695 5693 5691 5692 5695 5692 5690 5688 5688 5687 5688 5690 5690 5691 5693 5695 5697 5700 5705 5710 5714 5718 5721 5725 5728 5732 5736 5738
5742 5740 5738 5737 5734 5732 5729 5727 5724 5721 5719 5716 5714 5711 5710 5708 5706 5707 5708 5707 5706 5704 5702 5702 5701 5701 5702 5703 5705 5705 5707 5709 5712 5714 5717 5719 5721 5724 5728 5731 5733 5736 5737
5748 5746 5745 5743 5742 5741 5739 5737 5735 5733 5731 5729 5727 5725 5724 5721 5721 5720 5721 5720 5719 5718 5717 5716 5715 5716 5717 5718 5719 5719 5718 5720 5722 5724 5726 5729 5731 5733 5736 5737 5739 5740 5740
5752 5751 5750 5748 5748 5746 5745 5744 5743 5742 5740 5739 5738 5736 5735 5734 5733 5731 5730 5730 5729 5730 5729 5729 5729 5728 5728 5729 5728 5729 5728 5729 5730 5732 5733 5734 5735 5735 5736 5736 5736 5736 5736
5756 5755 5754 5754 5753 5752 5751 5750 5749 5748 5747 5746 5745 5744 5743 5742 5741 5741 5740 5739 5739 5738 5737 5737 5738 5738 5737 5736 5736 5735 5734 5733 5734 5736 5736 5736 5737 5736 5736 5735 5734 5733 5732
5758 5758 5757 5757 5757 5756 5756 5755 5753 5753 5752 5751 5750 5749 5749 5748 5747 5746 5745 5744 5744 5744 5743 5742 5742 5742 5741 5741 5741 5741 5741 5739 5737 5738 5737 5734 5735 5734 5732 5729 5728 5726 5724
5759 5760 5760 5759 5759 5759 5759 5758 5758 5757 5756 5755 5754 5753 5752 5751 5751 5750 5749 5748 5747 5746 5746 5746 5747 5745 5744 5743 5743 5742 5739 5736 5736 5733 5731 5730 5729 5727 5725 5723 5721 5717 5714
5759 5760 5760 5761 5761 5760 5760 5760 5759 5759 5758 5757 5756 5755 5754 5754 5753 5752 5751 5749 5748 5747 5746 5745 5744 5744 5743 5743 5741 5738 5736 5736 5733 5730 5728 5726 5723 5720 5717 5714 5711 5707 5704
Wind_Speed
33 34 34 38 44 49 45 30 30 27 31 31 25 26 28 29 40 20 22 12 31 16 13 11 19 21 22 28 31 35 38 40 57 63 72 79 89 86 82 77 71 67 59
31 32 36 42 46 46 32 31 28 27 31 30 35 26 28 35 38 37 28 26 23 17 15 16 15 17 24 32 32 38 49 61 68 75 84 88 88 83 78 69 64 67 65
32 33 38 44 47 35 29 30 25 29 28 34 35 36 35 34 44 42 40 40 40 42 41 37 35 36 42 48 55 60 69 76 82 88 91 85 82 79 66 70 64 69 48
33 34 39 44 40 29 30 26 27 31 36 30 33 41 41 45 45 48 47 50 58 62 61 58 57 57 58 60 66 76 84 89 89 87 83 72 70 70 68 68 62 63 84
32 36 40 44 32 30 26 25 29 35 34 34 39 50 46 52 50 60 56 56 58 65 81 62 66 73 75 79 86 93 90 78 69 69 73 78 77 68 62 58 63 62 71
34 37 42 38 30 29 27 34 31 35 36 45 45 47 48 48 46 59 58 56 65 66 55 63 63 59 75 85 89 80 85 59 60 48 59 64 68 64 59 56 60 60 74
36 38 41 33 30 30 30 36 31 35 39 37 42 47 46 46 51 48 52 48 46 59 55 63 56 70 73 71 50 64 56 55 52 55 55 62 58 63 47 58 69 74 76
36 40 40 32 29 32 33 34 29 42 39 40 40 49 57 52 49 51 51 49 50 57 59 61 61 70 64 42 35 46 53 59 55 52 50 56 46 53 51 55 64 66 69
37 42 41 33 32 35 35 32 29 37 37 41 40 42 55 46 48 48 49 50 50 50 54 53 55 42 49 52 50 44 31 36 47 47 50 47 51 41 52 52 53 52 55
39 44 46 34 33 39 37 29 28 31 38 41 40 41 45 47 47 45 46 49 48 46 46 43 41 38 36 37 50 41 36 40 48 47 48 44 46 49 59 48 47 53 55
42 45 52 42 33 36 36 36 38 35 35 35 38 38 39 44 47 44 44 45 46 46 44 39 35 36 30 21 18 24 34 43 38 41 43 36 36 43 44 42 49 61 67
44 48 51 55 46 38 36 38 42 42 39 35 34 37 38 39 42 47 46 41 41 43 40 35 32 31 29 26 22 19 38 35 31 38 39 31 30 37 44 43 51 63 63
40 45 50 54 55 54 43 40 41 41 43 42 37 32 37 39 38 38 40 39 39 35 36 33 34 34 29 26 28 26 27 29 35 29 26 29 36 37 41 40 52 53 60
43 41 45 49 53 57 56 52 42 39 39 40 39 38 33 36 35 35 30 32 28 28 37 39 35 29 28 32 29 31 30 34 34 31 31 31 31 31 34 43 46 41 47
47 48 45 44 47 50 53 55 54 51 43 37 34 33 35 32 31 31 30 28 30 34 30 26 36 46 38 26 31 30 32 34 36 35 29 26 25 24 24 29 40 36 36
44 46 48 49 49 50 49 49 50 51 52 50 46 36 31 31 33 31 30 31 32 38 33 31 32 31 41 40 32 32 35 34 30 28 29 31 31 29 27 30 33 33 36
39 42 45 46 48 49 52 54 54 54 51 48 49 51 51 48 47 46 44 44 43 42 35 39 38 34 35 43 41 36 28 30 30 27 25 26 28 27 25 26 34 29 31
33 36 39 42 45 47 47 49 50 51 53 56 56 54 52 53 53 54 52 48 47 48 49 50 50 49 47 45 41 33 35 36 33 28 24 24 22 21 20 19 16 19 28
27 28 31 34 38 40 43 46 47 49 49 49 50 51 52 53 55 56 53 49 49 49 48 48 47 47 46 46 46 44 42 36 30 27 24 22 21 17 14 12 13 15 20
23 25 24 27 30 33 36 39 41 43 44 46 47 48 47 47 47 46 45 44 43 44 45 45 46 47 46 47 49 50 49 48 47 46 43 39 32 30 30 26 23 17 13
18 20 21 22 20 23 25 29 32 35 37 38 39 40 42 43 43 43 42 41 41 42 44 44 44 44 43 43 42 43 42 41 42 40 39 36 33 31 28 26 24 23 22
14 17 18 19 20 21 20 20 20 23 27 29 30 31 32 33 34 34 34 35 37 37 37 38 38 37 36 36 36 35 35 34 33 31 28 27 26 25 24 24 25 23 21
10 13 15 16 17 19 20 21 21 20 18 19 18 20 21 23 24 24 23 24 25 26 27 28 28 27 27 28 26 26 27 26 24 22 22 22 20 19 20 21 24 27 28
6 9 11 12 12 14 16 17 17 18 19 18 18 16 15 15 15 16 16 17 18 18 17 16 17 18 18 18 15 15 14 15 17 16 16 18 19 21 24 27 30 32 34
4 3 4 6 8 9 11 12 12 14 15 15 14 14 14 14 13 12 12 11 11 12 12 12 12 13 13 13 12 11 13 15 16 17 21 23 26 28 31 33 36 40 43
9 6 4 2 1 3 6 8 9 10 11 10 12 13 13 12 11 12 12 12 11 10 10 10 11 12 12 14 15 17 19 20 21 22 23 25 29 32 34 38 41 45 49
Wind_Direction
342 341 345 345 346 350 349 357 5 7 7 6 6 9 7 355 6 332 345 340 353 334 309 234 230 237 209 196 182 175 181 177 168 162 161 163 167 167 170 173 177 179 184
347 351 349 349 351 354 2 8 13 20 16 7 17 31 10 23 27 28 22 3 22 54 80 96 110 130 152 154 158 155 152 148 146 150 148 156 159 164 166 163 175 174 183
359 355 355 355 356 4 15 20 33 32 23 22 33 37 40 31 43 38 47 58 65 74 80 87 97 111 122 129 133 135 137 139 139 139 143 151 157 160 160 174 174 179 184
3 359 359 1 6 23 29 48 44 43 40 42 33 24 57 56 57 57 60 69 77 80 81 87 94 102 110 118 125 127 128 127 131 136 138 146 152 161 169 171 175 186 169
6 7 6 6 24 31 42 50 55 54 43 36 34 57 56 61 71 68 65 73 83 88 78 82 95 101 105 112 117 117 116 119 122 137 144 157 158 158 165 169 177 172 171
14 13 13 17 35 35 61 60 54 47 56 54 53 58 59 61 59 71 69 78 89 90 77 86 100 95 114 113 113 117 125 131 136 156 149 146 154 156 165 173 175 178 175
19 20 20 36 43 55 64 59 48 52 68 62 71 62 70 72 75 70 76 78 81 82 82 92 100 110 116 117 116 136 120 140 137 139 147 157 159 169 167 173 172 172 169
28 28 30 49 52 62 65 59 48 66 69 79 76 77 71 65 75 79 81 83 79 84 87 94 108 114 110 107 121 124 122 124 141 147 159 152 152 162 164 169 175 175 174
37 37 41 56 65 67 64 59 59 72 78 83 69 68 89 74 73 79 83 85 86 87 93 97 109 102 87 109 119 129 124 129 142 144 152 153 160 164 172 177 181 186 178
44 44 48 59 71 74 69 65 67 76 85 84 77 81 81 89 82 78 84 87 90 91 93 97 104 103 98 107 125 118 127 125 128 129 141 149 152 162 168 169 180 186 184
51 52 54 59 68 76 73 70 71 77 85 91 86 86 86 88 92 84 79 88 90 90 92 92 91 91 94 110 127 95 112 128 131 141 146 148 157 167 175 176 179 182 179
56 57 58 59 65 73 75 77 74 74 76 82 83 87 88 91 95 96 85 83 92 102 100 94 90 89 92 89 92 94 127 117 118 148 149 151 161 171 179 180 179 178 177
59 60 61 62 62 63 69 73 73 73 74 74 73 83 87 90 96 100 99 98 94 95 103 100 112 105 95 97 93 102 117 124 126 146 157 156 164 168 177 184 184 185 183
59 62 64 64 65 65 64 64 69 75 76 74 71 70 79 85 86 95 98 98 95 78 81 70 88 115 116 107 93 118 116 127 126 124 126 138 143 153 167 183 190 194 195
63 64 64 66 66 67 67 67 65 66 72 77 80 79 79 80 88 93 84 83 80 73 73 68 73 79 102 108 104 112 119 127 130 125 122 132 138 148 167 181 192 201 204
62 64 67 68 69 70 70 71 70 69 67 71 77 85 93 85 86 90 87 85 80 75 69 64 70 70 79 104 113 115 117 124 122 124 130 140 152 166 173 188 197 207 217
63 64 64 67 70 72 72 72 73 73 73 72 70 72 76 85 86 84 80 77 77 78 80 78 74 77 73 76 92 103 118 124 126 130 131 141 151 154 162 173 200 212 218
64 63 65 65 65 68 70 72 74 75 74 73 72 72 72 73 76 78 78 77 79 84 87 86 86 84 82 82 82 83 90 95 104 117 133 141 146 152 164 180 188 196 224
66 64 64 66 67 69 69 69 67 68 69 71 72 72 71 73 75 75 76 77 77 78 79 80 82 84 85 85 83 81 80 75 73 81 96 106 119 124 140 157 180 195 217
70 69 69 69 72 75 74 74 72 71 71 71 70 69 67 67 69 71 73 72 72 72 72 72 74 74 75 77 83 84 82 80 77 76 73 69 67 67 62 59 53 48 40
64 73 74 72 72 72 71 73 79 78 75 73 72 72 72 72 71 71 72 72 72 72 74 73 74 77 79 79 80 79 78 77 76 75 73 73 74 73 66 58 57 51 44
68 76 76 76 73 69 67 68 70 74 78 81 79 76 74 74 74 71 69 70 71 69 69 71 71 71 73 73 73 73 72 71 71 67 63 59 58 55 46 37 30 22 15
77 79 77 74 72 69 67 66 66 63 61 61 66 74 77 74 68 67 69 68 66 64 65 68 69 70 72 70 71 66 62 61 57 54 51 45 35 28 20 13 6 1 358
90 85 80 78 74 73 68 64 60 58 57 55 53 52 52 51 51 50 47 45 47 49 49 48 47 45 46 45 45 44 41 41 45 39 33 27 14 6 3 359 354 350 345
166 127 88 72 71 71 67 60 53 51 50 48 40 37 38 38 39 40 40 40 34 26 22 18 17 18 20 14 3 357 354 354 346 347 351 347 346 343 343 343 339 338 335
214 218 212 198 52 31 33 34 30 29 29 27 32 29 21 15 15 18 18 14 9 5 2 356 353 349 347 341 340 338 338 337 333 332 326 326 327 328 329 329 329 329 326